COSMOS 249 DEB, 3583

Orbit data source: Space-Track

COSMOS 249 DEB, 3583 is space debris in LEO originally from a launch on Sun, 20 Oct 1968 UTC launched from the Tyuratam Missile And Space Complex (TTMTR). Debris objects in space refer to the collection of defunct objects orbiting the Earth. Examples of debris include non-operational satellites, rocket bodies, and fragments generated from explosions, collisions, or faulty payload assembly.

Loading next visibility...
Identifier
3583, 1968-091R
Orbit
LEO
Country
Flag of CISCIS
Related business
Manufacturer
Unknown
Mission
Spacecraft
Bus & Motor
Unknown
Mass
Unknown
Launch date (UTC)
1968-10-20 (57 years ago)
Launch vehicle
Unknown
Launch site
Tyuratam Missile And Space Complex (TTMTR)
Object type
Payload
Rocket body
Debris
Shape & HBR
Unknown shape, 0.1 m
Radar Cross Section
Small (<0.1 m²)

Expand to show TLE details & history
Last TLE update: 8 hours ago

TLE from 8 hours ago
0 COSMOS 249 DEB
1 03583U 68091R   25304.25503286  .00000357  00000-0  59720-3 0  9999
2 03583  62.0809   0.8846 0708966  89.2114 278.9977 12.85594451654786
Epoch: 2025-10-31T06:07Z
TLE epoch observation values (Epoch: 2025-10-31T06:07:14.839Z)
Latitude
-0.00002°
Longitude
-130.72933°
Altitude
1,273.574 km
Speed
7.242 km/s
True Right ascension
00h 03m 32s
True Declination
0° 00' 00"
Sunlit
Object was in full shadow at epoch
Visualization orbit readout
Latitude
Unknown
Longitude
Unknown
Altitude
Unknown
Speed
Unknown
Apparent Right ascension
Unknown
Apparent Declination
Unknown
Sunlit
N/A
Visualization observer readout
Local Sidereal Time
09:55:55
Azimuth
Unknown
Elevation
Unknown
Doppler factor
Unknown
Orbital elements
Apogee altitude
1,863.712 km
Perigee altitude
772.441 km
Semi-major axis
7,696.214 km
Eccentricity
0.0709
Inclination
62.0809°
RAAN
0.8846°
Arg. of periapsis
89.2114°
True anomaly
270.88801°
Mean anomaly
278.9977°
Eccentric anomaly
274.95078°
Mean motion
3.2146 °/min
Orbital period
111.99 mins
BSTAR
0.0005972
Loading maneuver chart data...
Computing Atmospheric mass density...

Documentation

Showing up to 5 results
|